Location: Newark
(23.3970°S, 47.6010°W)
Time: 15:00:06
(UTC+00:00)

Tiros 1 despin weight - Pass Details

Date: 20 February 2020
Orbit: 593 x 642 km, 48.2° (Epoch: 09 April)

Event Time Altitude Azimuth Distance (km) Brightness Sun altitude
Rises 01:10:55 0° 249° (WSW) 2,933 ? -42.5°
Enters shadow 01:12:25 - 257° (WSW) 2,464 ? -42.7°
Reaches altitude 10° 01:14:10 10° 272° (W) 2,007 - -43.0°
Maximum altitude 01:16:46 15° 306° (NW) 1,688 - -43.5°
Drops below altitude 10° 01:19:21 10° 341° (NNW) 1,978 - -43.9°
Sets 01:22:30 0° 5° (N) 2,863 - -44.4°
